Yeovilton, United Kingdom

10:21 PM BST on July 26, 2017 (GMT +0100)
Yeovil Radar Navy

Weather History for EGDY - December, 2013

Change the Weather History Date:

Wednesday, December 4, 2013

  Actual Average Record
Temperature  
Mean Temperature 38 °F -  
Max Temperature 48 °F 45 °F 57 °F (2006)
Min Temperature 26 °F 35 °F 26 °F (1997)
Degree Days  
Heating Degree Days 27    
Moisture  
Dew Point 38 °F    
Average Humidity 87    
Maximum Humidity 100    
Minimum Humidity 73    
Precipitation  
Precipitation 0.01 in - - ()
Sea Level Pressure  
Sea Level Pressure 30.43 in    
Wind  
Wind Speed 5 mph ()    
Max Wind Speed 14 mph    
Max Gust Speed -    
Visibility 5.4 miles    
Events Fog , Rain    
Averages and records for this station are not official NWS values.
T = Trace of Precipitation, MM = Missing Value Source: Averaged Metar Reports

Daily Weather History Graph

Daily Weather History Graph

Search for Another Location

Airport or City:

Trip Planner

Search our weather history database for the weather conditions in past years. The results will help you decide how hot, cold, wet, or windy it might be!

Date:

Astronomy

Dec. 04, 2013 Rise Set
Actual Time 7:55 AM GMT 4:05 PM GMT
Civil Twilight 7:16 AM GMT 4:44 PM GMT
Nautical Twilight 6:34 AM GMT 5:26 PM GMT
Astronomical Twilight 5:54 AM GMT 6:06 PM GMT
Moon 9:06 AM GMT (12/4) 6:04 PM GMT (12/4)
Length of Visible Light 9h 27m
Length of Day
8h 09m
Waxing Crescent, 3% of the Moon is Illuminated
Dec 4
Waxing Crescent
Dec 9
First Quarter
Dec 17
Full
Dec 25
Last Quarter
Jan 1
New

Hourly Weather History & Observations

Time (GMT) Temp. Windchill Dew Point Humidity Pressure Visibility Wind Dir Wind Speed Gust Speed Precip Events Conditions
12:00 AM 40 °F - 37 °F 83% 30.38 in 5 mi SE 3.5 mph - -   Haze
12:50 AM 41.0 °F - 37.4 °F 87% 30.36 in 5.0 mi ESE 2.3 mph - N/A   Haze
1:50 AM 41.0 °F 36.4 °F 39.2 °F 93% 30.33 in 4.3 mi SSW 6.9 mph - N/A   Haze
2:50 AM 42.8 °F - 37.4 °F 81% 30.36 in 5.0 mi WNW 1.2 mph - N/A   Haze
3:00 AM 42 °F - 38 °F 81% 30.36 in 5 mi WNW 1.2 mph - -   Haze
3:50 AM 42.8 °F - 39.2 °F 87% 30.33 in 5.0 mi WSW 1.2 mph - N/A   Haze
4:50 AM 44.6 °F 42.2 °F 39.2 °F 81% 30.33 in 5.0 mi WSW 4.6 mph - N/A   Haze
5:50 AM 44.6 °F 42.2 °F 41.0 °F 87% 30.33 in 5.0 mi SW 4.6 mph - N/A   Haze
6:00 AM 45 °F - 40 °F 77% 30.35 in 5 mi SW 4.6 mph - -   Haze
6:50 AM 46.4 °F 43.5 °F 41.0 °F 81% 30.33 in 6.2 mi SSW 5.8 mph - N/A   Haze
7:22 AM 48.2 °F - 41.0 °F 76% 30.33 in 5.0 mi SW 5.8 mph - N/A Rain Light Rain
7:50 AM 48.2 °F - 41.0 °F 76% 30.36 in 3.1 mi SW 5.8 mph - N/A Rain Light Rain
8:50 AM 48.2 °F - 42.8 °F 82% 30.36 in 2.5 mi SW 4.6 mph - N/A Rain Light Rain
9:00 AM 47 °F - 43 °F 81% 30.38 in 2 mi SW 4.6 mph - - Rain Light Rain
9:50 AM 48.2 °F - 44.6 °F 87% 30.39 in 2.5 mi West 8.1 mph - N/A Rain Light Rain
10:10 AM 48.2 °F - 46.4 °F 93% 30.39 in 1.9 mi West 11.5 mph - N/A Rain Rain
10:35 AM 46.4 °F 41.5 °F 46.4 °F 100% 30.39 in 1.2 mi WNW 10.4 mph - N/A Rain Rain
10:50 AM 46.4 °F 40.4 °F 44.6 °F 93% 30.42 in 2.5 mi North 13.8 mph - N/A Rain Light Rain
11:15 AM 44.6 °F 38.8 °F 42.8 °F 93% 30.42 in 6.2 mi North 11.5 mph - N/A   Mostly Cloudy
11:50 AM 44.6 °F 38.8 °F 41.0 °F 87% 30.45 in 6.2 mi NNE 11.5 mph - N/A   Mostly Cloudy
12:00 PM 45 °F - 41 °F 82% 30.45 in 9 mi NNE 11.5 mph - - Rain Light Rain
12:24 PM 46.4 °F 41.9 °F 41.0 °F 81% 30.45 in 6.2 mi North 9.2 mph - N/A   Mostly Cloudy
12:50 PM 46.4 °F 42.9 °F 41.0 °F 81% 30.45 in 6.2 mi North 6.9 mph - N/A   Mostly Cloudy
1:50 PM 46.4 °F 42.4 °F 39.2 °F 76% 30.45 in 6.2 mi NNW 8.1 mph - N/A   Mostly Cloudy
2:50 PM 46.4 °F 42.4 °F 41.0 °F 81% 30.48 in 6.2 mi NW 8.1 mph - N/A   Scattered Clouds
3:00 PM 46 °F - 40 °F 73% 30.48 in 16 mi NW 8.1 mph - -   Partly Cloudy
3:50 PM 42.8 °F 38.6 °F 39.2 °F 87% 30.48 in 6.2 mi NW 6.9 mph - N/A   Scattered Clouds
4:50 PM 39.2 °F 35.0 °F 37.4 °F 93% 30.51 in 6.2 mi West 5.8 mph - N/A   Scattered Clouds
5:50 PM 35.6 °F - 35.6 °F 100% 30.51 in 6.2 mi WSW 2.3 mph - N/A Fog Shallow Fog
6:00 PM 36 °F - 36 °F 100% 30.53 in 7 mi WSW 2.3 mph - - Fog Patches of Fog
6:50 PM 33.8 °F 28.6 °F 32.0 °F 93% 30.51 in 6.2 mi West 5.8 mph - N/A Fog Shallow Fog
7:50 PM 33.8 °F 29.6 °F 32.0 °F 93% 30.54 in 5.6 mi West 4.6 mph - N/A Fog Fog
8:50 PM 30.2 °F - 30.2 °F 100% 30.54 in 5.6 mi SW 1.2 mph - N/A Fog Fog
9:00 PM 31 °F - 30 °F 95% 30.55 in 6 mi SW 1.2 mph - - Fog Patches of Fog
9:50 PM 28.4 °F - 28.4 °F 100% 30.54 in 5.6 mi SE 2.3 mph - N/A Fog Fog
10:50 PM 28.4 °F - 26.6 °F 93% 30.54 in 5.6 mi SSE 1.2 mph - N/A Fog Fog
11:50 PM 26.6 °F - 26.6 °F 100% 30.54 in 5.6 mi ENE 2.3 mph - N/A   Partly Cloudy